GW1707 Weather Reports


Display with metric or nautical units.
time (UTC)temp
F
wind
direction
speed
MPH
gust
MPH
rain 1hr
in
rain 24hr
in
rain mn
in
humidity
%
barometer
mb
20260506124555 47 0 0.0 0.0 0.00 0.08 0.08 85 1027.7
20260506123053 48 0 0.0 0.0 0.00 0.08 0.08 89 1027.8
20260506121552 48 0 0.0 0.0 0.00 0.08 0.08 90 1027.7
20260506120055 48 0 0.0 0.0 0.00 0.08 0.08 91 1027.6
20260506114559 48 0 0.0 0.0 0.00 0.08 0.08 92 1027.6
20260506113058 48 0 0.0 0.0 0.00 0.08 0.08 92 1027.3
20260506111557 48 0 0.0 0.0 0.00 0.08 0.08 94 1027.2
20260506110052 48 0 0.0 0.0 0.00 0.08 0.08 95 1027.0
20260506104558 48 0 0.0 0.0 0.00 0.08 0.08 95 1027.0
20260506103059 48 0 0.0 0.0 0.00 0.08 0.08 95 1026.7
20260506101553 48 0 0.0 0.0 0.00 0.08 0.08 95 1026.7
20260506094555 49 0 0.0 0.0 0.00 0.08 0.08 95 1026.4
20260506093102 49 0 0.0 0.0 0.01 0.08 0.08 95 1026.3
20260506091601 50 0 0.0 0.0 0.02 0.08 0.08 95 1026.1
20260506090059 51 0 0.0 0.0 0.02 0.08 0.08 94 1025.7
20260506084603 51 0 0.0 0.0 0.02 0.08 0.08 93 1025.5
20260506083058 52 0 0.0 0.0 0.00 0.07 0.07 93 1025.1
20260506081600 53 0 0.0 0.0 0.00 0.06 0.06 91 1024.9
20260506073058 55 0 0.0 0.0 0.00 0.06 0.06 86 1024.4
20260506071555 56 0 0.0 0.0 0.00 0.06 0.06 84 1024.2
20260506061556 58 0 0.0 0.0 0.00 0.06 0.06 82 1024.0
20260506044621 54 0 0.0 0.0 0.00 0.06 0.06 96 1023.6
20260506043058 54 0 0.0 0.0 0.00 0.06 0.06 96 1023.7
20260506041555 55 0 0.0 0.0 0.00 0.06 0.06 96 1023.7
20260506040056 54 0 0.0 0.0 0.00 0.05 0.05 96 1023.7
20260506034552 55 0 0.0 0.0 0.01 0.05 0.05 96 1023.7
20260506033056 54 0 0.0 0.0 0.05 0.05 0.05 96 1023.8
20260506031557 54 0 0.0 0.0 0.05 0.05 0.05 96 1023.9
20260506030059 55 0 0.0 0.0 0.05 0.05 0.05 95 1023.9
20260506024600 55 0 0.0 0.0 0.03 0.03 0.03 95 1024.1
20260506023100 55 0 0.0 0.0 0.00 0.00 0.00 95 1024.2
20260506021605 55 0 0.0 0.0 0.00 0.00 0.00 94 1024.4
20260506020056 56 0 0.0 0.0 0.00 0.00 0.00 92 1024.5
20260506014553 56 0 0.0 0.0 0.00 0.00 0.00 93 1024.7
20260506013054 55 0 0.0 0.0 0.00 0.00 0.00 93 1024.8
20260506011549 55 0 0.0 0.0 0.00 0.00 0.00 94 1024.9
20260506010112 55 0 0.0 0.0 0.00 0.00 0.00 95 1024.9
20260506004555 55 0 0.0 0.0 0.00 0.00 0.00 96 1024.9
20260506003053 55 0 0.0 0.0 0.00 0.00 0.00 97 1024.9
20260506001555 55 0 0.0 0.0 0.00 0.00 0.00 97 1024.9
20260506000055 53 0 0.0 0.0 0.00 0.00 0.00 97 1024.8
20260505234607 53 0 0.0 0.0 0.00 0.00 0.00 96 1024.9
20260505233053 53 0 0.0 0.0 0.00 0.00 0.00 96 1024.9
20260505231556 53 0 0.0 0.0 0.00 0.00 0.00 97 1024.9
20260505230052 53 0 0.0 0.0 0.00 0.00 0.00 96 1024.7
20260505224555 53 0 0.0 0.0 0.00 0.00 0.00 96 1024.4
20260505223052 52 0 0.0 0.0 0.00 0.00 0.00 96 1024.5
20260505221553 52 0 0.0 0.0 0.00 0.00 0.00 96 1024.4
20260505220055 52 0 0.0 0.0 0.00 0.00 0.00 95 1024.4
20260505214622 52 0 0.0 0.0 0.00 0.00 0.00 95 1024.3
20260505213100 52 0 0.0 0.0 0.00 0.00 0.00 94 1024.1
20260505211555 52 0 0.0 0.0 0.00 0.00 0.00 94 1024.0
20260505210058 51 0 0.0 0.0 0.00 0.00 0.00 93 1024.0
20260505204604 51 0 0.0 0.0 0.00 0.00 0.00 93 1024.0
20260505203055 51 0 0.0 0.0 0.00 0.00 0.00 93 1024.0
20260505201556 51 0 0.0 0.0 0.00 0.00 0.00 92 1023.9
20260505200105 51 0 0.0 0.0 0.00 0.00 0.00 92 1024.0
20260505194605 51 0 0.0 0.0 0.00 0.00 0.00 91 1024.0
20260505193100 51 0 0.0 0.0 0.00 0.00 0.00 91 1024.0
20260505191556 51 0 0.0 0.0 0.00 0.00 0.00 91 1024.0
20260505190055 51 0 0.0 0.0 0.00 0.00 0.00 91 1024.0
20260505184555 51 0 0.0 0.0 0.00 0.00 0.00 91 1024.0
20260505183051 51 0 0.0 0.0 0.00 0.00 0.00 92 1024.1
20260505181551 51 0 0.0 0.0 0.00 0.00 0.00 92 1024.0
20260505180107 51 0 0.0 0.0 0.00 0.00 0.00 92 1024.1
20260505174602 51 0 0.0 0.0 0.00 0.00 0.00 92 1024.1
20260505173053 51 0 0.0 0.0 0.00 0.00 0.00 93 1024.2
20260505171550 51 0 0.0 0.0 0.00 0.00 0.00 93 1024.4
20260505170052 51 0 0.0 0.0 0.00 0.00 0.00 93 1024.4
20260505164553 51 0 0.0 0.0 0.00 0.00 0.00 93 1024.6
20260505163056 51 0 0.0 0.0 0.00 0.00 0.00 93 1024.7
20260505161610 51 0 0.0 0.0 0.00 0.00 0.00 93 1024.8
20260505160104 51 0 0.0 0.0 0.00 0.00 0.00 93 1024.9
20260505153056 51 0 0.0 0.0 0.00 0.00 0.00 92 1025.2
20260505151601 51 0 0.0 0.0 0.00 0.00 0.00 91 1025.3
20260505150108 51 0 0.0 0.0 0.00 0.00 0.00 90 1025.3
20260505140105 51 0 0.0 0.0 0.00 0.00 0.00 90 1025.5